星链-32000 (STARLINK-32000)

导读

STARLINK-32000是美国SpaceX公司星链星座的第二代卫星,于2024年7月28日,在美国加州范登堡发射场通过猎鹰9号火箭成功发射,属于Starlink Group 9-4任务批次。作为可直连手机的D2C卫星,它旨在填补此前发射失败的卫星缺口,为全球用户提供低轨宽带互联网服务。该星箭发射任务延续SpaceX复用火箭技术,一级火箭成功回收,此次发射让SpaceX累计发射星链总数突破6800颗。

基本信息
目录编号:
60289
目录名称:
STARLINK-32000
国际标识:
2024-132M
轨道中心:
EARTH
卫星名称:
星链-32000 (STARLINK-32000)
卫星全名:
星链-32000 (STARLINK-32000)
卫星状态:
在轨 (已飞行769 天)
发射日期:
2024-07-28 UTC
国别 :
美国 (US)
星等 :
--
轨道信息
数据来源 国际轨道数据
星历时间: 2026-09-05T20:59:22+0800
8小时前
查看轨道信息
半长轴: 6848.863km
偏心率: 0.0001176
轨道倾角: 53.159°
近地点辐角 80.304°
升交点赤经 295.825°
平近点角 279.809°
近地点: 469.92km
远地点: 471.532km
周期: 94.013分钟
每日圈数: 15.31705
详细信息
卫星平台:
Starlink v2.0 mini
运营商:
太空探索技术公司
运营商所在国:
美国
制造商(研发单位):
太空探索技术公司
制造商所在国:
美国
使用方式:
暂无
卫星简介
星链(Starlink)计划是由太空探索技术公司(SpaceX)提出的一个巨型低轨卫星互联网星座项目,计划在2019年至2024年间在太空搭建由约1.2万颗卫星组成的“星链”网络,其中1584颗将部署在地球上空550千米处的近地轨道,并从2020年开始工作。该卫星仍在工作。
2D轨道图
3D轨道图
轨道高度分析图
轨道倾角分析图
轨道综合分析图
查看轨道综合分析图
交会数据列表
事件ID 空间交会对象 最接近时刻(TCA) 交会距离 交会风险概率(CRP) 交会风险指数(CRI) 操作
CDM_260906-201906-028906-873321
2026-09-06T
20:19:55+0000
2.917 km
极远距离
1.38436E-6 低风险 0.38
CDM_260906-135506-028906-882321
2026-09-06T
13:55:08+0000
2.915 km
极远距离
1.379025E-6 低风险 0.38
CDM_260907-101806-028906-882021
2026-09-07T
10:18:50+0000
2.975 km
极远距离
1.34783E-6 低风险 0.38